Location: Hartha
(51.1030°N, 12.9600°E)
Time: 12:24:08
(UTC+02:00)

ISS - Pass Details

Date: 10 July 2022
Orbit: 412 x 420 km, 51.6° (Epoch: 17 August)

Event Time Altitude Azimuth Distance (km) Brightness Sun altitude
Rises 04:02:55 0° 282° (WNW) 2,365 -0.2 -7.7°
Reaches altitude 10° 04:05:01 10° 281° (W) 1,502 -1.2 -7.5°
Maximum altitude 04:08:23 75° 197° (SSW) 440 -3.8 -7.2°
Drops below altitude 10° 04:11:45 10° 111° (ESE) 1,503 -0.7 -6.9°
Sets 04:13:51 0° 110° (ESE) 2,367 0.4 -6.6°
